Location: ?
(35.4996°N, 139.3166°E)
Time: 04:56:01
(UTC+00:00)

KORONAS-FOTON - Pass Details

Date: 18 April 2024
Orbit: 478 x 498 km, 82.4° (Epoch: 23 May)

Event Time Altitude Azimuth Distance (km) Brightness Sun altitude
Exits shadow 18:52:41 17° 197° (SSW) 1,289 5.4 -14.7°
Maximum altitude 18:55:22 66° 278° (W) 533 3.6 -14.2°
Drops below altitude 10° 18:58:59 10° 1° (N) 1,664 6.7 -13.5°
Sets 19:01:06 0° 4° (N) 2,545 7.7 -13.1°
